Location: Maplecroft Mobile Home Park
(40.9842°N, 80.6514°W)
Time: 04:53:41
(UTC+00:00)

Daily predictions for brighter satellites

Satellite Brightness Start Highest point End
(mag) Time Altitude Azimuth Time Altitude Azimuth Time Altitude Azimuth
OAO 2 Rocket 4.2 00:02:15 10° SW 00:06:41 33° SSE 00:07:50 29° SE
SeaSat 1 2.9 00:11:24 39° ENE 00:11:33 39° ENE 00:16:08 10° N
Cosmos 2219 3.1 00:06:46 10° NNW 00:12:34 88° ENE 00:17:55 12° SSE
USA 305 4.4 00:10:17 10° NNW 00:13:35 23° NNE 00:13:35 23° NNE
YAOGAN 1 2.6 00:11:04 10° S 00:15:23 78° WSW 00:19:44 10° NNW
USA 306 4.4 00:16:34 10° NNW 00:19:37 24° NNE 00:19:37 24° NNE
S3M 3.8 00:15:08 10° S 00:21:13 84° E 00:27:24 10° N
Cosmos 2082 3.9 00:16:59 10° NNW 00:22:30 46° ENE 00:22:40 46° ENE
Cosmos 1892 3.0 00:20:01 10° NNW 00:23:52 68° W 00:26:14 22° S
SL-4 R/B 4.0 00:22:05 10° NNW 00:24:00 17° N 00:24:00 17° N
CZ-2C R/B 3.5 00:19:02 10° S 00:24:51 74° WSW 00:30:35 10° NNW
Cosmos 1315 Rocket 3.8 00:22:12 10° S 00:24:27 33° S 00:24:27 33° S
Cosmos 968 Rocket 3.3 00:21:17 10° NNW 00:26:31 83° ENE 00:28:17 43° SSE
Cosmos 1346 Rocket 3.2 00:25:13 10° N 00:28:23 55° N 00:28:23 55° N
Cosmos 2369 3.6 00:25:44 10° S 00:31:22 67° ESE 00:32:23 56° ENE
CRYOSAT 2 4.3 00:27:44 10° N 00:32:37 81° W 00:37:28 10° S
Atlas Centaur 2 3.8 00:25:38 10° SW 00:33:12 36° S 00:35:21 31° SE
Meteor 2-10 Rocket 3.7 00:29:06 10° SSW 00:34:28 70° W 00:39:40 10° N
Okean-O 4.2 00:32:39 10° SSW 00:36:42 35° W 00:40:47 10° NNW
ARGOS 3.0 00:36:35 58° SE 00:37:39 78° ENE 00:43:06 10° N
Cosmos 1486 Rocket 4.1 00:33:31 10° NNW 00:38:51 74° WSW 00:41:02 36° S
NOSS 3-3 (A) 3.7 00:34:05 10° SSW 00:39:48 89° SE 00:41:50 45° NE
NOSS 3-3 (C) 3.7 00:34:10 10° SSW 00:39:56 89° ESE 00:41:58 45° NE
Meteor 2-1 Rocket 4.4 00:37:12 10° SSW 00:42:42 70° W 00:48:13 10° N
USA 215 3.9 00:42:31 35° NE 00:43:09 36° NNE 00:48:59 10° NW
MOS 1 Rocket 4.0 00:42:58 10° N 00:47:30 53° WNW 00:52:17 10° SSW
Cosmos 1503 Rocket 4.3 00:43:06 10° NNW 00:47:17 56° N 00:47:17 56° N
Cosmos 2227 Rocket 2.6 00:43:19 10° NNW 00:48:53 62° WSW 00:51:12 35° S
CSL-04 Rocket 4.2 00:47:18 10° S 00:52:45 58° W 00:58:13 10° NNW
ATLAS 2AS CENTAUR R/B 3.9 00:48:28 10° NNW 00:54:14 29° NNE 00:54:14 29° NNE
GEOS 3 Rocket 3.9 00:57:17 62° SSW 00:57:43 65° WSW 01:03:05 10° NW
Cosmos 2263 Rocket 4.1 00:53:10 10° N 00:54:45 17° N 00:54:45 17° N
Lacrosse 5 4.2 01:01:58 10° NNW 01:03:38 13° N 01:03:38 13° N
Cosmos 1697 Rocket 3.2 00:59:09 10° SW 01:04:38 57° WNW 01:06:00 45° NNW
H-2A R/B (2) 4.2 00:06:39 10° WSW 01:06:48 47° SSW 01:09:35 39° SSE
H-2A R/B 3.3 01:03:29 10° SSW 01:08:32 41° W 01:13:40 10° NNW
Cosmos 1980 Rocket 4.2 01:20:48 10° SSW 01:22:19 19° SSW 01:22:19 19° SSW
CZ-4C R/B 4.3 01:21:41 10° NNW 01:25:16 23° NNE 01:25:16 23° NNE
Cosmos 2297 Rocket 4.3 01:24:21 10° NW 01:28:41 23° W 01:32:04 14° SW
Milstar 3 4.2 01:30:40 10° WSW 01:34:44 27° SSW 01:34:44 27° SSW
NOSS 3-2 (C) 4.2 08:44:10 47° NE 08:44:10 47° NE 08:48:43 10° NE
Lacrosse 4 Rocket 3.9 08:57:05 18° NE 08:57:05 18° NE 08:58:16 10° NE
CENTAUR R/B 2.7 08:57:17 66° NE 08:57:17 66° NE 09:03:10 10° NE
CZ-2C R/B 3.2 09:01:06 10° NNE 09:05:23 49° ENE 09:05:23 49° ENE
Cosmos 1833 Rocket 3.8 09:08:55 21° SSE 09:12:13 41° ESE 09:17:29 10° NE
PAYLOAD A 4.3 09:08:08 10° NNE 09:12:41 65° ENE 09:12:41 65° ENE
In-Cosmos 22 4.4 09:14:21 61° NNE 09:14:21 61° NNE 09:18:50 10° NNE
Cosmos 1269 Rocket 4.1 09:17:07 72° ENE 09:17:07 72° ENE 09:22:01 10° NNE
Lacrosse 5 rocket 2.9 09:22:56 29° ENE 09:22:56 29° ENE 09:25:04 10° NE
H-2A R/B 4.5 09:20:13 10° SSE 09:20:50 14° SSE 09:20:50 14° SSE
Cosmos 2142 Rocket 4.3 09:19:16 10° N 09:25:31 76° W 09:31:48 10° S
Cosmos 2344 3.7 09:27:00 48° WNW 09:27:34 49° NW 09:35:18 10° NNE
USA 238 DEB 4.0 09:29:27 45° NW 09:29:27 45° NW 09:35:48 10° NNE
USA 238 4.0 09:29:32 45° NW 09:29:32 45° NW 09:35:54 10° NNE
Cosmos 2082 Rocket 3.8 09:26:24 10° SSE 09:31:18 32° ESE 09:36:14 10° NE
Meteor 1-16 Rocket 4.0 09:27:37 10° N 09:32:57 87° E 09:38:17 10° S
NOSS 3-2 (A) 4.2 09:34:08 35° NNW 09:34:08 35° NNW 09:39:26 10° NNE
CZ-4B R/B 3.2 09:36:08 10° SE 09:39:14 32° ENE 09:42:22 10° N
Cosmos 1656 3.7 09:36:09 25° NNW 09:39:40 85° ENE 09:45:21 10° SSE
ATLAS 3B R/B 3.2 09:36:22 10° SSW 09:42:44 56° ESE 09:49:10 10° NE
COSMOS 2406 3.1 09:48:10 39° SW 09:50:19 74° WNW 09:56:01 10° NNE
Cosmos 2279 Rocket 4.0 09:44:29 10° NNW 09:50:31 55° W 09:56:31 10° SSW
Cosmos 292 Rocket 4.2 09:57:37 42° SW 09:57:37 42° SW 10:01:24 10° S
Cosmos 1697 Rocket 3.0 09:52:40 10° NNW 09:58:19 66° ENE 10:03:56 10° SSE
ADEOS Rocket 2.8 09:54:12 10° S 09:59:32 52° W 10:04:57 10° NNW
ERS-2 1.9 10:00:38 10° S 10:04:15 78° WSW 10:05:48 33° NNW
BREEZE-M DEB (TANK) 2.0 10:04:38 54° SSE 10:04:38 54° SSE 10:06:28 10° SE
Cosmos 44 Rocket 3.3 10:04:23 29° NW 10:06:58 68° WSW 10:12:07 10° SSE
Cosmos 1908 3.6 10:08:35 44° SW 10:08:35 44° SW 10:11:41 10° S
SL-19 R/B 4.4 10:06:30 10° NNE 10:09:14 48° ESE 10:12:03 10° S
SAR-Lupe-4 4.2 10:06:07 10° SSE 10:09:36 55° ENE 10:13:07 10° N
CBERS 1 LM4 rocket 4.5 10:06:25 10° N 10:11:10 50° WNW 10:14:28 18° SW
Abrixas rocket 3.7 10:11:30 21° N 10:11:43 22° NNE 10:14:00 10° ENE
FENGYUN 3A 3.6 10:06:51 10° NNE 10:12:20 84° WNW 10:17:46 10° SSW
Cosmos 1461 3.0 10:10:10 21° SSW 10:13:09 87° WNW 10:17:52 10° NNE
TELKOM 3 3.6 10:12:57 65° WSW 10:13:21 83° NNW 10:17:06 10° ENE
Cosmos 2251 Rocket 3.8 10:11:53 10° S 10:17:13 74° ESE 10:22:34 10° NNE
SL-14 R/B 3.2 10:13:22 10° S 10:17:20 85° WNW 10:21:22 10° N
Cosmos 1689 Rocket 3.7 10:15:07 10° SE 10:17:50 35° ENE 10:20:33 10° N
ISS -3.5 10:19:03 46° WNW 10:19:27 50° NNW 10:22:45 10° NE
Cosmos 1980 Rocket 3.0 10:14:45 10° NNW 10:20:14 52° ENE 10:25:40 10° SE
USA 290 2.3 10:19:12 10° SSW 10:22:24 74° ESE 10:25:38 10° NNE
SAR-Lupe-1 4.0 10:23:39 10° SSE 10:27:12 88° ENE 10:30:48 10° NNW
DELTA 2 R/B (1) 4.4 10:24:50 24° WSW 10:27:26 37° SSW 10:32:33 10° SE
Cosmos 1300 2.7 10:23:57 10° N 10:27:47 82° E 10:31:36 10° S
Cosmos 2360 4.2 10:26:09 10° NNW 10:31:53 86° WSW 10:37:33 10° SSE
PSLV R/B 4.5 10:28:05 10° SSE 10:32:13 62° ENE 10:36:24 10° N
ALOS 2.4 10:28:45 10° N 10:33:16 50° WNW 10:37:45 10° SSW
Lacrosse 4 Rocket 2.9 10:33:26 19° NW 10:33:26 19° NW 10:36:12 10° N
Cosmos 1726 Rocket 3.5 10:32:35 10° N 10:37:04 81° W 10:41:31 10° S
Cosmos 1484 Rocket 3.3 10:35:52 10° N 10:39:24 35° WNW 10:42:51 10° SW
Cosmos 1626 2.8 10:38:26 10° SW 10:41:44 31° WNW 10:45:04 10° NNW
CZ-2C R/B 3.7 10:40:22 10° NNW 10:43:43 18° WNW 10:44:45 17° W
Cosmos 2278 3.7 10:41:26 10° NNW 10:47:07 89° ENE 10:52:46 10° SSE
Aureole 3 3.8 10:43:21 10° N 10:47:32 87° E 10:52:52 10° S
CENTAUR R/B 3.8 10:44:29 16° WNW 10:47:58 24° NNW 10:53:40 10° NNE
H-2A R/B 4.0 10:44:50 10° NNE 10:48:31 45° E 10:52:13 10° S
Cosmos 2228 3.4 10:44:52 10° NNW 10:49:00 42° W 10:53:07 10° SSW
CZ-4B R/B 2.8 10:45:24 10° N 10:49:25 72° WNW 10:53:37 10° SSW
Cosmos 2322 Rocket 4.4 10:46:11 10° N 10:50:42 24° NE 10:55:10 10° ESE
Cosmos 1606 Rocket 3.9 10:47:54 10° NNW 10:52:07 42° W 10:56:20 10° SSW
ADEOS 4.2 10:47:28 10° N 10:52:10 35° WNW 10:56:50 10° SW
Cosmos 1092 Rocket 4.1 10:47:46 10° SSW 10:53:46 54° W 10:59:52 10° N
Cosmos 1833 Rocket 3.5 10:51:21 10° WSW 10:56:14 30° NW 11:01:10 10° N
COSMO-SKYMED 1 2.6 10:52:12 10° S 10:56:28 60° W 11:00:47 10° NNW
Cosmos 967 Rocket 4.5 10:50:24 10° NW 10:56:39 66° WSW 11:02:48 10° SSE
Lacrosse 5 rocket 2.5 10:58:35 14° WNW 11:00:49 23° NNW 11:03:53 10° NNE
Meteor 1-24 Rocket 4.1 10:57:25 10° SSW 11:02:43 44° WNW 11:08:14 10° N
CZ-3 R/B 3.5 10:43:47 10° WSW 11:03:07 41° SSW 11:09:12 10° SE
Meteor 1-31 Rocket 3.8 11:00:08 10° NNW 11:03:26 26° WNW 11:06:43 10° SW
ATLAS CENTAUR R/B 3.6 11:00:59 10° S 11:04:24 28° ESE 11:07:41 10° NE
Envisat 4.1 11:00:13 10° NNE 11:05:09 49° E 11:10:04 10° S
Meteor PRIRODA 3.8 11:02:42 10° N 11:06:14 47° WNW 11:09:45 10° SSW
Cosmos 407 Rocket 4.0 11:01:26 10° S 11:06:29 66° ESE 11:11:35 10° NNE
Meteor 2-10 Rocket 3.7 11:02:49 10° N 11:07:50 74° E 11:12:55 10° SSE
Cosmos 2369 4.2 11:04:57 10° NW 11:10:07 37° WSW 11:15:14 10° S
CZ-4B R/B 3.3 11:09:47 10° SW 11:11:34 13° W 11:13:22 10° WNW
Meteor 2-19 Rocket 4.5 11:08:00 10° S 11:14:05 89° W 11:20:12 10° N
Cosmos 1140 Rocket 4.1 11:09:04 10° S 11:14:07 61° ESE 11:19:11 10° NNE
Cosmos 2082 Rocket 2.8 11:10:10 10° SW 11:15:17 36° WNW 11:20:26 10° N
Okean 1-7 Rocket 3.9 11:11:27 10° SSW 11:15:49 46° WNW 11:20:12 10° N
PSLV R/B 3.9 11:12:07 10° N 11:16:15 82° WNW 11:20:21 10° SSW
Cosmos 1455 2.9 11:13:14 10° N 11:17:03 59° E 11:20:52 10° SSE
S3M 4.5 11:11:13 10° N 11:17:31 69° E 11:23:50 10° SSE
CZ-4B DEB 4.4 11:15:49 10° NNE 11:21:20 82° ESE 11:26:48 10° SSW
